Content
SEND FEEDBACK

Daily
Averages
Monthly
Summary
United States of America

ST. LOUIS, MISSOURI


Home > North America > United States > Missouri
Elevation: 535 feet     Latitude: 38 45N     Longitude: 090 22W

WEATHER
 
SELECT A DAY
Number of Records: 201,199;   Date Range: 1/1/95 - 12/17/14
 
SHARE

PRINT THIS DATA

[ ← Previous Day ]
WEATHER ALMANAC - JUNE 12, 2013
[ Next Day → ]
[ °C ]   °F
Weather ElementAverageHighLow
Temperature84.7 °F93.9 °F (2:54 pm)70 °F (5:54 am)
Dewpoint69.4 °F72 °F (10:54 am)66 °F (4:54 am)
Humidity61.5 %87 % (5:54 am)46 % (4:54 pm)
Barometer29.80 in29.92 in (7:54 am)29.71 in (7:54 pm)
Wind Speed9.3 mph19.6 mph (4:54 pm)
Wind Gust28.8 mph (4:54 pm)
Weather ElementAverage
Visibility10 mi
Wind DirectionS (175.2 °)

Weather ElementTotal
Precipitation---
Cooling Degree Days17 (Base 65)
Growing Degree Days32 (Base 50)
Averaged from 23 records on June 12, 2013
WEATHER CONDITIONS BREAKOUT
WIND DIRECTION BREAKOUT
WEATHER BY HOUR - JUNE 12, 2013
[ °C ]   °F
Local TimeTemperatureDewpointHumidityBarometerVisibilityWind DirectionWind SpeedGust SpeedPrecipitationEventsConditions
1:54 AM80.1 °F68.0 °F67 %29.85 in10.0 miSW (220°)4.6 mphClear
2:54 AM75.9 °F68.0 °F76 %29.85 in10.0 miCalmClear
3:54 AM75.9 °F66.9 °F74 %29.84 in10.0 miCalmClear
4:54 AM71.1 °F66.0 °F84 %29.86 in10.0 miCalmClear
5:54 AM70.0 °F66.0 °F87 %29.87 in10.0 miCalmPartly Cloudy
6:54 AM73.9 °F69.1 °F85 %29.90 in10.0 miCalmScattered Clouds
7:54 AM79.0 °F70.0 °F74 %29.92 in10.0 miSSW (200°)5.8 mphClear
8:54 AM80.1 °F71.1 °F74 %29.91 in10.0 miSSW (200°)6.9 mphMostly Cloudy
9:54 AM82.9 °F71.1 °F67 %29.89 in10.0 miSW (230°)9.2 mphPartly Cloudy
10:54 AM87.1 °F72.0 °F61 %29.86 in10.0 miSSW (210°)11.5 mph23.0 mphScattered Clouds
11:54 AM90.0 °F72.0 °F55 %29.84 in10.0 miSW (220°)16.1 mph20.7 mphPartly Cloudy
12:54 PM91.9 °F71.1 °F50 %29.81 in10.0 miSSW (210°)11.5 mph18.4 mphPartly Cloudy
1:54 PM93.0 °F71.1 °F49 %29.78 in10.0 miSW (220°)12.7 mph20.7 mphScattered Clouds
2:54 PM93.9 °F71.1 °F47 %29.76 in10.0 miSSW (210°)16.1 mph26.5 mphPartly Cloudy
3:54 PM93.9 °F72.0 °F49 %29.74 in10.0 miSW (220°)15.0 mph21.9 mphClear
4:54 PM93.9 °F70.0 °F46 %29.73 in10.0 miSW (230°)19.6 mph28.8 mphPartly Cloudy
5:54 PM93.0 °F72.0 °F50 %29.72 in10.0 miSW (230°)8.1 mph18.4 mphScattered Clouds
6:54 PM91.0 °F70.0 °F50 %29.72 in10.0 miWSW (240°)11.5 mphScattered Clouds
7:54 PM90.0 °F69.1 °F50 %29.71 in10.0 miWSW (240°)16.1 mph23.0 mphMostly Cloudy
8:54 PM87.1 °F66.9 °F51 %29.71 in10.0 miSW (230°)12.7 mph19.6 mphClear
9:54 PM86.0 °F66.9 °F53 %29.72 in10.0 miWSW (240°)11.5 mphClear
10:54 PM84.9 °F68.0 °F57 %29.72 in10.0 miWSW (240°)11.5 mphClear
11:54 PM84.0 °F68.0 °F58 %29.72 in10.0 miWSW (240°)12.7 mphClear
Hourly data recorded from KSUS, located miles away from St. Louis, Missouri







STORIES FROM OUR PARTNERS